• In Belarus
  • List of Countries
  • For 7 days
  • Water Temperature
  • Satellite Maps
  • Weather Map
  • Weather Widgets
  • user-avatar
    Login

    Hourly Weather Zaranj

    Today, 19 December, Tuesday

    Time Temperature Precipitation Wind Pressure Humidity
    00:00 +16°C° 0 mm 2 mps 724 mmHg 24%
    01:00 +16°C° 0 mm 2 mps 724 mmHg 26%
    02:00 +15°C° 0.1 mm 2 mps 724 mmHg 29%
    03:00 +15°C° 0.1 mm 2 mps 724 mmHg 31%
    04:00 +15°C° 0.1 mm 2 mps 724 mmHg 33%
    05:00 +14°C° 0.1 mm 2 mps 724 mmHg 35%
    06:00 +14°C° 0.1 mm 2 mps 724 mmHg 36%
    07:00 +14°C° 0.1 mm 1 mps 724 mmHg 37%
    08:00 +16°C° 0 mm 1 mps 725 mmHg 33%
    09:00 +18°C° 0 mm 1 mps 725 mmHg 29%
    10:00 +20°C° 0 mm 1 mps 726 mmHg 26%
    11:00 +21°C° 0 mm 1 mps 725 mmHg 24%
    12:00 +22°C° 0 mm 1 mps 725 mmHg 22%
    13:00 +22°C° 0 mm 1 mps 725 mmHg 20%
    14:00 +22°C° 0 mm 1 mps 725 mmHg 20%
    15:00 +22°C° 0 mm 1 mps 724 mmHg 20%
    16:00 +22°C° 0 mm 1 mps 724 mmHg 20%
    17:00 +21°C° 0 mm 1 mps 725 mmHg 22%
    18:00 +20°C° 0 mm 1 mps 725 mmHg 24%
    19:00 +18°C° 0 mm 1 mps 725 mmHg 26%
    20:00 +17°C° 0 mm 2 mps 725 mmHg 28%
    21:00 +16°C° 0 mm 2 mps 725 mmHg 30%
    22:00 +16°C° 0 mm 2 mps 726 mmHg 32%
    23:00 +15°C° 0 mm 2 mps 726 mmHg 35%

    Tomorrow, 20 December, Wednesday

    Time Temperature Precipitation Wind Pressure Humidity
    00:00 +15°C° 0 mm 2 mps 726 mmHg 38%
    01:00 +14°C° 0 mm 2 mps 725 mmHg 41%
    02:00 +14°C° 0 mm 2 mps 725 mmHg 43%
    03:00 +13°C° 0 mm 2 mps 725 mmHg 46%
    04:00 +13°C° 0 mm 2 mps 726 mmHg 49%
    05:00 +12°C° 0 mm 2 mps 726 mmHg 50%
    06:00 +12°C° 0 mm 2 mps 726 mmHg 52%
    07:00 +12°C° 0 mm 2 mps 727 mmHg 53%
    08:00 +14°C° 0 mm 2 mps 727 mmHg 48%
    09:00 +15°C° 0 mm 2 mps 728 mmHg 42%
    10:00 +17°C° 0 mm 2 mps 728 mmHg 37%
    11:00 +19°C° 0 mm 1 mps 728 mmHg 33%
    12:00 +20°C° 0 mm 1 mps 727 mmHg 30%
    13:00 +19°C° 0 mm 0 mps 727 mmHg 27%
    14:00 +21°C° 0 mm 1 mps 727 mmHg 26%
    15:00 +21°C° 0 mm 1 mps 726 mmHg 25%
    16:00 +21°C° 0 mm 1 mps 726 mmHg 25%
    17:00 +20°C° 0 mm 1 mps 727 mmHg 28%
    18:00 +19°C° 0 mm 1 mps 727 mmHg 30%
    19:00 +16°C° 0 mm 1 mps 727 mmHg 33%
    20:00 +16°C° 0 mm 1 mps 727 mmHg 35%
    21:00 +15°C° 0 mm 1 mps 727 mmHg 36%
    22:00 +13°C° 0 mm 0 mps 727 mmHg 38%
    23:00 +13°C° 0 mm 0 mps 727 mmHg 39%

    Day after tomorrow, 21 December, Thursday

    Time Temperature Precipitation Wind Pressure Humidity
    00:00 +13°C° 0 mm 0 mps 727 mmHg 40%
    01:00 +13°C° 0 mm 1 mps 727 mmHg 41%
    02:00 +13°C° 0 mm 1 mps 727 mmHg 42%
    03:00 +13°C° 0 mm 1 mps 727 mmHg 44%
    04:00 +12°C° 0 mm 1 mps 727 mmHg 45%
    05:00 +12°C° 0 mm 1 mps 727 mmHg 47%
    06:00 +12°C° 0 mm 1 mps 727 mmHg 48%
    07:00 +11°C° 0 mm 1 mps 727 mmHg 50%
    08:00 +13°C° 0 mm 0 mps 728 mmHg 43%
    09:00 +15°C° 0 mm 0 mps 728 mmHg 37%
    10:00 +17°C° 0 mm 0 mps 729 mmHg 31%
    11:00 +18°C° 0 mm 0 mps 728 mmHg 29%
    12:00 +19°C° 0 mm 0 mps 728 mmHg 27%
    13:00 +22°C° 0 mm 1 mps 727 mmHg 25%
    14:00 +22°C° 0 mm 1 mps 727 mmHg 25%
    15:00 +22°C° 0 mm 1 mps 726 mmHg 24%
    16:00 +22°C° 0 mm 1 mps 726 mmHg 24%
    17:00 +20°C° 0 mm 1 mps 726 mmHg 27%
    18:00 +19°C° 0 mm 1 mps 726 mmHg 30%
    19:00 +16°C° 0 mm 1 mps 726 mmHg 33%
    20:00 +16°C° 0 mm 1 mps 726 mmHg 34%
    21:00 +15°C° 0 mm 1 mps 726 mmHg 35%
    22:00 +15°C° 0 mm 1 mps 726 mmHg 37%
    23:00 +15°C° 0 mm 1 mps 726 mmHg 38%

    22 December, Friday

    Time Temperature Precipitation Wind Pressure Humidity
    00:00 +14°C° 0 mm 1 mps 726 mmHg 39%
    01:00 +14°C° 0 mm 1 mps 725 mmHg 40%
    02:00 +13°C° 0 mm 1 mps 725 mmHg 41%
    03:00 +13°C° 0 mm 1 mps 725 mmHg 42%
    04:00 +12°C° 0 mm 1 mps 725 mmHg 43%
    05:00 +11°C° 0 mm 0 mps 725 mmHg 44%
    06:00 +11°C° 0 mm 0 mps 725 mmHg 45%
    07:00 +10°C° 0 mm 0 mps 725 mmHg 46%
    08:00 +13°C° 0 mm 0 mps 726 mmHg 40%
    09:00 +15°C° 0 mm 0 mps 726 mmHg 34%
    10:00 +19°C° 0 mm 1 mps 727 mmHg 28%
    11:00 +20°C° 0 mm 1 mps 726 mmHg 26%
    12:00 +21°C° 0 mm 1 mps 725 mmHg 25%
    13:00 +22°C° 0 mm 1 mps 725 mmHg 23%
    14:00 +22°C° 0 mm 1 mps 724 mmHg 23%
    15:00 +22°C° 0 mm 1 mps 724 mmHg 22%
    16:00 +22°C° 0 mm 1 mps 724 mmHg 22%
    17:00 +21°C° 0 mm 1 mps 724 mmHg 25%
    18:00 +19°C° 0 mm 1 mps 724 mmHg 27%
    19:00 +18°C° 0 mm 1 mps 724 mmHg 30%
    20:00 +18°C° 0 mm 1 mps 724 mmHg 30%
    21:00 +16°C° 0 mm 1 mps 724 mmHg 31%
    22:00 +16°C° 0 mm 1 mps 723 mmHg 32%
    23:00 +15°C° 0 mm 1 mps 723 mmHg 33%

    23 December, Saturday

    Time Temperature Precipitation Wind Pressure Humidity
    00:00 +14°C° 0 mm 1 mps 723 mmHg 34%
    01:00 +14°C° 0 mm 1 mps 722 mmHg 35%
    02:00 +13°C° 0 mm 1 mps 722 mmHg 36%
    03:00 +13°C° 0 mm 1 mps 722 mmHg 37%
    04:00 +13°C° 0 mm 1 mps 722 mmHg 38%
    05:00 +13°C° 0 mm 1 mps 722 mmHg 38%
    06:00 +12°C° 0 mm 1 mps 722 mmHg 38%
    07:00 +12°C° 0 mm 1 mps 722 mmHg 38%
    08:00 +15°C° 0 mm 1 mps 723 mmHg 33%
    09:00 +18°C° 0 mm 1 mps 723 mmHg 29%
    10:00 +19°C° 0 mm 2 mps 724 mmHg 24%
    11:00 +21°C° 0 mm 1 mps 723 mmHg 23%
    12:00 +22°C° 0 mm 1 mps 722 mmHg 21%
    13:00 +23°C° 0 mm 1 mps 722 mmHg 20%
    14:00 +23°C° 0 mm 1 mps 722 mmHg 19%
    15:00 +23°C° 0 mm 1 mps 721 mmHg 19%
    16:00 +23°C° 0 mm 1 mps 721 mmHg 19%
    17:00 +22°C° 0 mm 1 mps 721 mmHg 21%
    18:00 +20°C° 0 mm 1 mps 722 mmHg 23%
    19:00 +19°C° 0 mm 1 mps 722 mmHg 25%
    20:00 +18°C° 0 mm 1 mps 722 mmHg 26%
    21:00 +18°C° 0 mm 1 mps 722 mmHg 27%
    22:00 +16°C° 0 mm 1 mps 722 mmHg 28%
    23:00 +15°C° 0 mm 1 mps 722 mmHg 29%

    24 December, Sunday

    Time Temperature Precipitation Wind Pressure Humidity
    00:00 +15°C° 0 mm 1 mps 721 mmHg 30%
    01:00 +15°C° 0 mm 1 mps 721 mmHg 31%
    02:00 +14°C° 0 mm 1 mps 721 mmHg 32%
    03:00 +14°C° 0 mm 1 mps 721 mmHg 32%
    04:00 +14°C° 0 mm 1 mps 721 mmHg 33%
    05:00 +14°C° 0 mm 1 mps 721 mmHg 34%
    06:00 +13°C° 0 mm 1 mps 721 mmHg 36%
    07:00 +13°C° 0 mm 1 mps 722 mmHg 37%
    08:00 +15°C° 0 mm 1 mps 722 mmHg 33%
    09:00 +18°C° 0 mm 1 mps 722 mmHg 29%
    10:00 +20°C° 0 mm 1 mps 723 mmHg 25%
    11:00 +21°C° 0 mm 1 mps 722 mmHg 24%
    12:00 +22°C° 0 mm 1 mps 721 mmHg 22%
    13:00 +23°C° 0 mm 1 mps 721 mmHg 20%
    14:00 +23°C° 0 mm 1 mps 721 mmHg 20%
    15:00 +23°C° 0 mm 1 mps 720 mmHg 20%
    16:00 +23°C° 0 mm 1 mps 720 mmHg 20%
    17:00 +22°C° 0 mm 1 mps 720 mmHg 21%
    18:00 +20°C° 0 mm 2 mps 720 mmHg 23%
    19:00 +19°C° 0 mm 2 mps 721 mmHg 25%
    20:00 +18°C° 0 mm 2 mps 721 mmHg 25%
    21:00 +18°C° 0 mm 2 mps 721 mmHg 25%
    22:00 +17°C° 0 mm 2 mps 721 mmHg 25%
    23:00 +17°C° 0 mm 2 mps 720 mmHg 26%
    Show more